Location: Montr�al
(45.5000°N, 73.5830°W)
Time: 02:49:48
(UTC-05:00)

ISS - All Passes

Search period start: 08 December 2016 00:00
Search period end: 18 December 2016 00:00
Orbit: 401 x 410 km, 51.6° (Epoch: 08 December)

Date Brightness Start Highest point End Pass type
(mag) Time Alt. Az. Time Alt. Az. Time Alt. Az.
08 Dec - 15:02:19 10° SSW 15:05:13 30° SE 15:08:09 10° ENE daylight
08 Dec - 16:38:24 10° W 16:41:37 50° NNW 16:44:51 10° NE visible
08 Dec - 18:15:44 10° WNW 18:18:36 27° N 18:21:30 10° ENE visible
08 Dec - 19:52:30 10° NW 19:55:39 41° NNE 19:58:49 10° E visible
08 Dec - 21:29:02 10° WNW 21:32:11 42° SW 21:35:20 10° SE night (unlit)
09 Dec - 14:11:13 10° S 14:13:28 17° SE 14:15:44 10° E daylight
09 Dec - 15:46:20 10° WSW 15:49:37 77° NNW 15:52:56 10° ENE daylight
09 Dec - 17:23:32 10° WNW 17:26:28 29° N 17:29:26 10° NE visible
09 Dec - 19:00:32 10° NW 19:03:34 32° NNE 19:06:36 10° ENE visible
09 Dec - 20:36:59 10° WNW 20:40:18 74° SSW 20:43:35 10° SE night (unlit)
09 Dec - 22:15:08 10° WSW 22:16:17 11° SW 22:17:26 10° SSW night (unlit)
10 Dec - 14:54:25 10° SW 14:57:41 65° SSE 15:00:58 10° ENE daylight
10 Dec - 16:31:19 10° W 16:34:21 34° NNW 16:37:25 10° NE daylight
10 Dec - 18:08:31 10° NW 18:11:26 28° N 18:14:22 10° ENE visible
10 Dec - 19:45:01 10° WNW 19:48:20 69° NNE 19:51:38 10° ESE visible
10 Dec - 21:22:03 10° W 21:24:33 20° SW 21:27:03 10° S night (unlit)
11 Dec - 14:02:44 10° SSW 14:05:47 37° SE 14:08:51 10° ENE daylight
11 Dec - 15:39:05 10° W 15:42:15 44° NNW 15:45:27 10° NE daylight
11 Dec - 17:16:25 10° WNW 17:19:17 27° N 17:22:10 10° ENE visible
11 Dec - 18:53:04 10° NW 18:56:17 46° NNE 18:59:30 10° E visible
11 Dec - 20:29:42 10° WNW 20:32:44 34° SW 20:35:46 10° SSE night (unlit)
12 Dec - 13:11:24 10° S 13:13:57 21° SE 13:16:32 10° E daylight
12 Dec - 14:46:56 10° WSW 14:50:12 64° NNW 14:53:30 10° ENE daylight
12 Dec - 16:24:12 10° WNW 16:27:07 28° N 16:30:01 10° NE daylight
12 Dec - 18:01:06 10° NW 18:04:11 35° NNE 18:07:16 10° E visible
12 Dec - 19:37:34 10° WNW 19:40:51 60° SSW 19:44:06 10° SE visible
13 Dec - 12:20:46 10° SSE 12:22:11 12° SE 12:23:36 10° ESE daylight
13 Dec - 13:54:55 10° SW 13:58:11 80° SSE 14:01:30 10° ENE daylight
13 Dec - 15:31:57 10° WNW 15:34:56 31° NNW 15:37:57 10° NE daylight
13 Dec - 17:09:05 10° NW 17:12:02 29° N 17:15:00 10° ENE visible
13 Dec - 18:45:33 10° WNW 18:48:51 82° NNE 18:52:10 10° ESE visible
13 Dec - 20:22:51 10° W 20:25:00 16° SW 20:27:08 10° S night (unlit)
14 Dec - 13:03:05 10° SW 13:06:14 46° SE 13:09:24 10° ENE daylight
14 Dec - 14:39:40 10° W 14:42:48 39° NNW 14:45:56 10° NE daylight
14 Dec - 16:16:58 10° WNW 16:19:51 27° N 16:22:44 10° ENE daylight
14 Dec - 17:53:33 10° NW 17:56:49 53° NNE 18:00:03 10° ESE visible
14 Dec - 19:30:17 10° W 19:33:10 28° SW 19:36:02 10° SSE visible
15 Dec - 12:11:33 10° SSW 12:14:21 26° SE 12:17:09 10° E daylight
15 Dec - 13:47:27 10° WSW 13:50:41 55° NNW 13:53:55 10° ENE daylight
15 Dec - 15:24:45 10° WNW 15:27:38 27° N 15:30:31 10° ENE daylight
15 Dec - 17:01:34 10° NW 17:04:41 38° NNE 17:07:49 10° E visible
15 Dec - 18:38:03 10° WNW 18:41:16 48° SW 18:44:28 10° SE visible
16 Dec - 11:20:31 10° S 11:22:31 15° SE 11:24:31 10° E daylight
16 Dec - 12:55:20 10° WSW 12:58:36 85° NNW 13:01:55 10° ENE daylight
16 Dec - 14:32:28 10° WNW 14:35:25 29° N 14:38:23 10° NE daylight
16 Dec - 16:09:31 10° NW 16:12:31 31° N 16:15:30 10° ENE daylight
16 Dec - 17:45:58 10° WNW 17:49:16 83° SSW 17:52:34 10° ESE visible
16 Dec - 19:23:41 10° WSW 19:25:18 13° SW 19:26:56 10° SSW visible
17 Dec - 12:03:23 10° SW 12:06:35 57° SE 12:09:49 10° ENE daylight
17 Dec - 13:40:09 10° W 13:43:13 35° NNW 13:46:18 10° NE daylight
17 Dec - 15:17:24 10° NW 15:20:17 27° N 15:23:12 10° ENE daylight
17 Dec - 16:53:55 10° WNW 16:57:12 62° NNE 17:00:29 10° ESE visible
17 Dec - 18:30:49 10° W 18:33:28 23° SW 18:36:08 10° SSE visible
